Location: Le Petit-Vavre
(46.5081°N, 1.5239°E)
Time: 16:01:44
(UTC+00:00)

CZ-4 R/B - Pass Details

Date: 03 March 2021
Orbit: 532 x 597 km, 97.7° (Epoch: 18 April)

Event Time Altitude Azimuth Distance (km) Brightness Sun altitude
Rises 19:38:30 0° 210° (SSW) 2,668 5.0 -20.6°
Reaches altitude 10° 19:41:26 10° 236° (SW) 1,790 4.5 -21.1°
Maximum altitude 19:43:35 14° 270° (W) 1,538 4.6 -21.4°
Drops below altitude 10° 19:45:46 10° 304° (NW) 1,812 4.9 -21.8°
Sets 19:48:46 0° 329° (NNW) 2,723 5.5 -22.3°
